Regional Weather Roundup
Issued by NWS

Home | Current Version | Previous Version | Text Only | Print | Product List | Glossary Off
Versions: 1 2 3 4 5 6 7 8 9 10 11 12 13 14 15 16 17 18 19 20 21 22 23 24 25 26 27

000
ASUS45 KBOU 221107
RWRCO

WEATHER ROUNDUP FOR COLORADO
NATIONAL WEATHER SERVICE DENVER/BOULDER CO
500 AM MDT SAT APR 22 2017

NOTE: "FAIR" INDICATES FEW OR NO CLOUDS BELOW 12000 FEET WITH NO
SIGNIFICANT WEATHER AND/OR OBSTRUCTIONS TO VISIBILITY.

COZ001>005-013-030-031-221200-
...NORTHWEST COLORADO...

CITY           SKY/WX    TMP DP  RH WIND       PRES   REMARKS
CRAIG          MOCLDY    29  25  85 SE3       30.26R
HAYDEN         FAIR      28  23  80 CALM      30.25S
MEEKER         MOCLDY    30  26  85 E6        30.24S WCI  24
MOUNT WERNER   NOT AVBL
STEAMBOAT SPGS CLOUDY    29  28  96 CALM      30.24S
WALDEN           N/A     21  18  86 SE5       30.25R WCI  15
$$

COZ006>008-011-221200-
...WEST CENTRAL VALLEYS...

CITY           SKY/WX    TMP DP  RH WIND       PRES   REMARKS
GRAND JUNCTION FAIR      44  23  43 VRB3      30.17R
MONTROSE       FAIR      30  22  72 SE5       30.20R WCI  25
EAGLE          FAIR      26  24  92 CALM      30.26R
RIFLE          CLOUDY    34  30  85 E5        30.22R WCI  30
DELTA          FAIR      34  21  58 CALM      30.18R
NUCLA          FAIR      32  18  55 E8        30.21R WCI  25
$$

COZ017>023-064>068-221200-
...SOUTHWEST COLORADO...

CITY           SKY/WX    TMP DP  RH WIND       PRES   REMARKS
DURANGO        FAIR      24  12  60 N3        30.13R
CORTEZ         FAIR      26  16  65 NE8       30.15R WCI  18
PAGOSA SPRINGS FAIR      28  13  52 CALM      30.16S
TELLURIDE      FAIR      29  15  55 CALM      30.20S
WOLF CREEK PAS FAIR      19  10  68 N5        30.26F WCI  13
$$

COZ009-010-012-014-032>034-037-058>063-221200-
...CENTRAL COLORADO...

CITY           SKY/WX    TMP DP  RH WIND       PRES   REMARKS
ASPEN          FAIR      26  20  77 SW3       30.20S
BUENA VISTA    MOCLDY    29  20  68 NW6       30.21S WCI  23
COPPER MTN     FAIR      19  14  79 MISG      30.23R
BERTHOUD PASS  HAZE      12   1  62 N3        30.22R VSB 1/4
COTTONWOOD PAS MOCLDY    30  18  59 SW3       30.22S
GUNNISON       FAIR      25  19  78 CALM      30.22R
KREMMLING      FAIR      32  28  86 CALM      30.25R
LEADVILLE      FAIR      13   9  84 NE5       30.21S WCI   5
SALIDA         CLOUDY    34  31  90 E3        30.29S
SUNLIGHT       CLOUDY    21  19  93 MISG      30.26S
WILKERSON PASS MOCLDY   N/A N/A N/A NE7       30.24S
$$

COZ069>075-221200-
...SAN LUIS VALLEY/SANGRE DE CRISTO MOUNTAINS...

CITY           SKY/WX    TMP DP  RH WIND       PRES   REMARKS
ALAMOSA        FAIR      24  20  84 SW5       30.17R WCI  18
LA VETA PASS   FOG       23  21  93 NE8       30.32S VSB 3/4 WCI  14
SAGUACHE       FAIR      28  18  64 CALM      30.19R
$$

COZ035-036-038>040-221200-
...NORTHERN COLORADO FRONT RANGE...

CITY           SKY/WX    TMP DP  RH WIND       PRES   REMARKS
DENVER INTL AP LGT RAIN  36  33  89 SE9       30.24R
DMNS CITY PARK   N/A     38  36  94 E10       30.24S
AURORA         LGT SNOW  33  33  99 SE7       30.24R FOG     WCI  27
FRONT RANGE AP DRIZZLE   36  36 100 E12       30.25R
ERIE MUNI ARPT CLOUDY    38  37  93 E9        30.24S
BOULDER MUN AP DRIZZLE   37  37 100 NE5       30.24R
CENTENNIAL     LGT RAIN  36  34  92 CALM      30.23R
BROOMFIELD     RAIN      37  36  93 E6        30.24S
FORT COLLINS   LGT RAIN  37  35  92 SE9       30.25S
LONGMONT       MIX PCPN  41  39  91 E5        30.26R
$$

COZ041-046-047-076>085-087-088-221200-
...PIKES PEAK/PALMER DIVIDE AND SOUTHERN FOOTHILLS...

CITY           SKY/WX    TMP DP  RH WIND       PRES   REMARKS
COLO. SPRINGS  CLOUDY    35  33  92 SE6       30.24S WCI  30
A. F. ACADEMY  CLOUDY    35  33  95 S7        30.22R WCI  29
SCHRIEVER AFB  CLOUDY    33  32  99 SE6       30.24S WCI  27
ELLICOTT       CLOUDY   N/A N/A N/A SE6       30.22S
FALCON         CLOUDY    32  32 100 SE7       30.24S WCI  26
FORT CARSON    CLOUDY    35  34  95 E5        30.23F WCI  31
LIMON          LGT RAIN  36  35  96 SE5       30.25R
MONUMENT HILL  CLOUDY    32  30  93 CALM      30.23S
TRINIDAD       LGT RAIN  38  35  89 E10       30.21R
$$

COZ042>045-048>051-090-091-221200-
...NORTHEAST COLORADO...

CITY           SKY/WX    TMP DP  RH WIND       PRES   REMARKS
GREELEY ARPT   LGT RAIN  38  36  92 S8        30.27R
AKRON          FOG       37  36  96 N5        30.25S VSB 1/2
BURLINGTON     MOCLDY    38  36  92 NE3       30.25R
WRAY           NOT AVBL
STERLING       CLOUDY    37  37 100 CALM      30.25S
HOLYOKE        FAIR      37  36  93 CALM      30.27S
FORT MORGAN    CLOUDY    38  36  91 CALM      30.26S
$$

COZ086-089-092>099-221200-
...SOUTHEAST COLORADO...

CITY           SKY/WX    TMP DP  RH WIND       PRES   REMARKS
PUEBLO         LGT RAIN  40  36  86 E8        30.24S
LA JUNTA       CLOUDY    42  38  85 E3        30.24R
LAMAR          CLOUDY    40  37  89 NE3       30.23R
SPRINGFIELD      N/A     37  36  96 N7        30.22R
$$




USA.gov is the U.S. government's official web portal to all federal, state and local government web resources and services.